Weather History for KFBL - April, 2014

Change the Weather History Date:

Monday, April 28, 2014

  Actual Average Record
Temperature  
Mean Temperature 46 °F -  
Max Temperature 48 °F 64 °F 89 °F (2004)
Min Temperature 44 °F 38 °F 26 °F (1979)
Degree Days  
Heating Degree Days 19    
Moisture  
Dew Point 38 °F    
Average Humidity 74    
Maximum Humidity 81    
Minimum Humidity 66    
Precipitation  
Precipitation 0.36 in - - ()
Sea Level Pressure  
Sea Level Pressure 29.58 in    
Wind  
Wind Speed 17 mph (ENE)    
Max Wind Speed 26 mph    
Max Gust Speed 40 mph    
Visibility 9 miles    
Events Rain , Thunderstorm    
Averages and records for this station are not official NWS values.
T = Trace of Precipitation, MM = Missing Value Source: NWS Daily Summary

Daily Weather History Graph

Daily Weather History Graph

Search for Another Location

Airport or City:

Trip Planner

Search our weather history database for the weather conditions in past years. The results will help you decide how hot, cold, wet, or windy it might be!

Date:

Astronomy

Apr. 28, 2014 Rise Set
Actual Time 6:08 AM CDT 8:13 PM CDT
Civil Twilight 5:36 AM CDT 8:45 PM CDT
Nautical Twilight 4:58 AM CDT 9:24 PM CDT
Astronomical Twilight 4:15 AM CDT 10:07 PM CDT
Moon 5:49 AM CDT (4/28) 7:51 PM CDT (4/28)
Length of Visible Light 15h 08m
Length of Day
14h 05m
Waning Crescent, 0% of the Moon is Illuminated
Apr 28
Waning Crescent
Apr 29
New
May 6
First Quarter
May 14
Full
May 21
Last Quarter

Hourly Weather History & Observations

Time (CDT) Temp. Windchill Dew Point Humidity Pressure Visibility Wind Dir Wind Speed Gust Speed Precip Events Conditions
12:14 AM 48.2 °F - 39.2 °F 71% 29.64 in 10.0 mi East 13.8 mph 23.0 mph 0.01 in   Overcast
12:34 AM 48.2 °F - 39.2 °F 71% 29.66 in 10.0 mi East 13.8 mph 20.7 mph 0.01 in   Overcast
1:14 AM 48.2 °F - 39.2 °F 71% 29.64 in 10.0 mi East 15.0 mph 23.0 mph N/A   Overcast
1:34 AM 48.2 °F - 39.2 °F 71% 29.64 in 10.0 mi East 10.4 mph 21.9 mph N/A   Overcast
1:54 AM 48.2 °F - 39.2 °F 71% 29.64 in 10.0 mi East 12.7 mph 23.0 mph N/A Thunderstorm Overcast
2:14 AM 48.2 °F - 39.2 °F 71% 29.61 in 10.0 mi East 12.7 mph 21.9 mph N/A Rain Light Rain
2:34 AM 48.2 °F - 39.2 °F 71% 29.60 in 7.0 mi East 12.7 mph 24.2 mph N/A Rain , Thunderstorm Rain
3:14 AM 46.4 °F 39.0 °F 39.2 °F 76% 29.59 in 10.0 mi East 19.6 mph 28.8 mph 0.02 in   Overcast
3:34 AM 46.4 °F 39.0 °F 37.4 °F 71% 29.59 in 10.0 mi East 19.6 mph 31.1 mph 0.02 in   Overcast
3:54 AM 46.4 °F 38.3 °F 37.4 °F 71% 29.58 in 10.0 mi East 23.0 mph 33.4 mph 0.02 in   Overcast
4:14 AM 46.4 °F 39.2 °F 37.4 °F 71% 29.58 in 10.0 mi East 18.4 mph 28.8 mph N/A   Overcast
4:34 AM 46.4 °F 39.5 °F 37.4 °F 71% 29.58 in 10.0 mi East 17.3 mph 27.6 mph N/A   Light Drizzle
4:54 AM 46.4 °F 39.2 °F 37.4 °F 71% 29.57 in 10.0 mi East 18.4 mph 27.6 mph N/A Rain Light Rain
5:14 AM 46.4 °F 39.0 °F 37.4 °F 71% 29.57 in 10.0 mi East 19.6 mph 31.1 mph N/A   Overcast
5:34 AM 46.4 °F 39.8 °F 37.4 °F 71% 29.56 in 10.0 mi East 16.1 mph 28.8 mph N/A   Overcast
5:54 AM 46.4 °F 39.5 °F 39.2 °F 76% 29.56 in 7.0 mi East 17.3 mph 27.6 mph N/A   Overcast
6:14 AM 46.4 °F 39.8 °F 39.2 °F 76% 29.55 in 7.0 mi ENE 16.1 mph 28.8 mph N/A   Overcast
6:34 AM 46.4 °F 39.0 °F 39.2 °F 76% 29.55 in 10.0 mi East 19.6 mph 26.5 mph N/A   Overcast
6:54 AM 46.4 °F 39.8 °F 39.2 °F 76% 29.55 in 7.0 mi East 16.1 mph 32.2 mph N/A   Light Drizzle
7:14 AM 46.4 °F 38.5 °F 37.4 °F 71% 29.56 in 10.0 mi East 21.9 mph 31.1 mph N/A   Overcast
7:34 AM 46.4 °F 38.7 °F 37.4 °F 71% 29.56 in 5.0 mi East 20.7 mph 28.8 mph N/A Rain Rain
7:54 AM 46.4 °F 39.0 °F 37.4 °F 71% 29.56 in 5.0 mi East 19.6 mph 25.3 mph N/A Rain Light Rain
8:14 AM 44.6 °F 37.2 °F 37.4 °F 76% 29.56 in 4.0 mi East 17.3 mph 33.4 mph N/A Rain Light Rain
8:34 AM 44.6 °F 38.1 °F 37.4 °F 76% 29.56 in 4.0 mi East 13.8 mph 29.9 mph 0.01 in Rain Heavy Rain
8:54 AM 44.6 °F 37.2 °F 37.4 °F 76% 29.56 in 7.0 mi East 17.3 mph 24.2 mph 0.05 in Rain Heavy Rain
9:14 AM 44.6 °F 38.1 °F 37.4 °F 76% 29.56 in 7.0 mi East 13.8 mph 21.9 mph 0.04 in Rain Rain
9:34 AM 44.6 °F 36.1 °F 39.2 °F 81% 29.56 in 5.0 mi East 21.9 mph 33.4 mph 0.12 in Rain Heavy Rain
9:54 AM 44.6 °F 37.8 °F 39.2 °F 81% 29.56 in 3.0 mi East 15.0 mph 29.9 mph 0.21 in Rain Heavy Rain
10:14 AM 44.6 °F 36.9 °F 39.2 °F 81% 29.55 in 5.0 mi East 18.4 mph 26.5 mph 0.04 in Rain Heavy Rain
10:34 AM 44.6 °F 37.8 °F 39.2 °F 81% 29.56 in 10.0 mi East 15.0 mph 26.5 mph 0.06 in Rain Rain
10:54 AM 44.6 °F 36.4 °F 39.2 °F 81% 29.56 in 10.0 mi ENE 20.7 mph 31.1 mph 0.06 in   Overcast
11:14 AM 44.6 °F 36.6 °F 39.2 °F 81% 29.56 in 10.0 mi East 19.6 mph 29.9 mph N/A   Overcast
11:34 AM 44.6 °F 36.9 °F 39.2 °F 81% 29.56 in 10.0 mi East 18.4 mph 26.5 mph N/A   Overcast
11:54 AM 44.6 °F 36.6 °F 39.2 °F 81% 29.57 in 7.0 mi East 19.6 mph 31.1 mph N/A   Overcast
12:14 PM 44.6 °F 37.2 °F 39.2 °F 81% 29.57 in 10.0 mi East 17.3 mph 28.8 mph N/A Rain Light Rain
12:34 PM 44.6 °F 36.6 °F 39.2 °F 81% 29.57 in 10.0 mi East 19.6 mph 27.6 mph 0.01 in Rain Light Rain
12:54 PM 44.6 °F 37.2 °F 39.2 °F 81% 29.56 in 7.0 mi ENE 17.3 mph 25.3 mph 0.02 in Rain Heavy Rain
1:14 PM 44.6 °F 37.2 °F 39.2 °F 81% 29.57 in 10.0 mi East 17.3 mph 29.9 mph N/A Rain Light Rain
1:34 PM 44.6 °F 36.9 °F 39.2 °F 81% 29.55 in 10.0 mi ENE 18.4 mph 24.2 mph N/A   Light Drizzle
1:54 PM 44.6 °F 37.2 °F 39.2 °F 81% 29.56 in 10.0 mi ENE 17.3 mph 28.8 mph N/A   Overcast
2:14 PM 44.6 °F 37.8 °F 39.2 °F 81% 29.55 in 10.0 mi ENE 15.0 mph 29.9 mph N/A   Overcast
2:54 PM 46.4 °F 38.3 °F 41.0 °F 81% 29.56 in 10.0 mi ENE 23.0 mph 31.1 mph N/A   Overcast
3:14 PM 46.4 °F 39.5 °F 41.0 °F 81% 29.56 in 10.0 mi ENE 17.3 mph 31.1 mph N/A   Overcast
3:34 PM 46.4 °F 39.0 °F 41.0 °F 81% 29.56 in 10.0 mi ENE 19.6 mph 27.6 mph N/A   Overcast
4:14 PM 48.2 °F - 39.2 °F 71% 29.56 in 10.0 mi ENE 17.3 mph 31.1 mph N/A   Overcast
4:34 PM 48.2 °F - 39.2 °F 71% 29.56 in 10.0 mi ENE 18.4 mph 32.2 mph N/A   Overcast
4:54 PM 48.2 °F - 39.2 °F 71% 29.56 in 10.0 mi ENE 18.4 mph 32.2 mph N/A Thunderstorm Overcast
5:14 PM 48.2 °F - 39.2 °F 71% 29.57 in 10.0 mi ENE 20.7 mph 32.2 mph N/A   Overcast
5:34 PM 48.2 °F - 39.2 °F 71% 29.57 in 10.0 mi ENE 17.3 mph 28.8 mph N/A   Overcast
5:54 PM 48.2 °F - 37.4 °F 66% 29.58 in 10.0 mi ENE 24.2 mph 40.3 mph N/A   Overcast
6:14 PM 46.4 °F 37.9 °F 39.2 °F 76% 29.58 in 10.0 mi ENE 25.3 mph 31.1 mph N/A   Overcast
6:34 PM 46.4 °F 37.7 °F 39.2 °F 76% 29.59 in 5.0 mi ENE 26.5 mph 33.4 mph N/A Rain Heavy Rain
6:53 PM 46.4 °F 39.5 °F 39.2 °F 76% 29.59 in 5.0 mi ENE 17.3 mph 28.8 mph N/A Rain Light Rain
7:14 PM 46.4 °F 39.5 °F 39.2 °F 76% 29.61 in 10.0 mi ENE 17.3 mph 25.3 mph N/A   Overcast
7:34 PM 46.4 °F 39.2 °F 37.4 °F 71% 29.60 in 10.0 mi ENE 18.4 mph 29.9 mph N/A   Overcast
7:54 PM 46.4 °F 39.2 °F 37.4 °F 71% 29.60 in 10.0 mi ENE 18.4 mph 28.8 mph N/A   Overcast
8:14 PM 46.4 °F 38.7 °F 37.4 °F 71% 29.60 in 10.0 mi NE 20.7 mph 33.4 mph N/A   Overcast
8:34 PM 46.4 °F 39.2 °F 37.4 °F 71% 29.60 in 10.0 mi ENE 18.4 mph 24.2 mph N/A   Overcast
8:54 PM 46.4 °F 39.8 °F 37.4 °F 71% 29.60 in 10.0 mi NE 16.1 mph 26.5 mph N/A   Overcast
9:14 PM 46.4 °F 40.1 °F 37.4 °F 71% 29.61 in 10.0 mi NE 15.0 mph 21.9 mph N/A   Overcast
9:34 PM 46.4 °F 39.5 °F 37.4 °F 71% 29.61 in 10.0 mi ENE 17.3 mph 26.5 mph N/A   Overcast
9:54 PM 46.4 °F 39.8 °F 37.4 °F 71% 29.62 in 10.0 mi NE 16.1 mph 20.7 mph N/A   Overcast
10:14 PM 46.4 °F 40.4 °F 37.4 °F 71% 29.62 in 10.0 mi NE 13.8 mph - N/A   Overcast
10:34 PM 46.4 °F 41.1 °F 35.6 °F 66% 29.62 in 10.0 mi ENE 11.5 mph 19.6 mph N/A   Overcast
10:54 PM 46.4 °F 40.4 °F 35.6 °F 66% 29.62 in 10.0 mi NE 13.8 mph 24.2 mph N/A   Overcast
11:14 PM 46.4 °F 39.5 °F 35.6 °F 66% 29.61 in 10.0 mi NE 17.3 mph 24.2 mph N/A   Overcast
11:33 PM 46.4 °F 40.4 °F 35.6 °F 66% 29.61 in 10.0 mi NE 13.8 mph 21.9 mph N/A   Overcast
11:54 PM 46.4 °F 40.1 °F 35.6 °F 66% 29.61 in 10.0 mi NE 15.0 mph 19.6 mph N/A Rain Light Rain